Retour au catalogue

STARLINK-31941

ActifCommunicationsVLEO
NORAD 59866·PAYLOAD·🇺🇸 United States

Lancé May 24, 2024 depuis Cape Canaveral Space Force Station

Loading…

Prochains Passages (prochaines 24 heures)

TLE

FraisSource: CelesTrak SupGP

Époque: Sep 14, 2026, 21:33 UTC

1 59866C 24098J   26257.89840278  .00027410  00000+0  99310-3 0  2570
2 59866  43.0029 271.6990 0001451 266.3441 110.3313 15.27554316    17

Suivez STARLINK-31941 en temps réel avec AllMySat

Download on the App Store